Location: Pabrico
(37.5827°N, 122.0063°W)
Time: 13:17:01
(UTC+00:00)

Cosmos 1867 - Visible Passes

Search period start: 12 July 2024 00:00
Search period end: 22 July 2024 00:00
Orbit: 772 x 802 km, 65.0° (Epoch: 11 July)

Date Brightness Start Highest point End Pass type
(mag) Time Alt. Az. Time Alt. Az. Time Alt. Az.
12 Jul 6.4 04:57:24 10° W 05:01:30 21° NW 05:05:38 10° N visible
12 Jul 5.0 12:01:34 10° NNW 12:06:48 44° NE 12:11:58 10° SE visible
13 Jul 6.0 04:24:48 10° WSW 04:29:26 28° NW 04:34:07 10° N visible
13 Jul 5.5 11:29:53 10° NNW 11:34:48 33° NE 11:39:40 10° ESE visible
14 Jul 5.5 03:52:24 10° WSW 03:57:24 37° NW 04:02:28 10° NNE visible
14 Jul 6.0 10:58:17 10° N 11:02:46 25° NE 11:07:11 10° ESE visible
15 Jul 6.3 10:26:48 10° N 10:30:40 19° NE 10:34:29 10° E visible
15 Jul 3.5 12:09:19 10° NW 12:14:45 69° WSW 12:20:08 10° SSE visible
16 Jul 6.9 04:35:56 10° WNW 04:38:06 12° NW 04:40:16 10° NNW visible
16 Jul 6.6 09:55:30 10° N 09:58:31 15° NE 10:01:31 10° ENE visible
16 Jul 3.6 11:37:23 10° NNW 11:42:54 86° ENE 11:48:19 10° SSE visible
17 Jul 6.7 04:02:38 10° W 04:05:55 16° NW 04:09:13 10° N visible
17 Jul 6.7 09:24:39 10° NNE 09:26:19 11° NE 09:27:58 10° NE visible
17 Jul 4.1 11:05:33 10° NNW 11:11:00 62° ENE 11:16:22 10° SE visible
18 Jul 4.6 10:33:48 10° NNW 10:39:03 45° NE 10:44:15 10° SE visible
18 Jul 4.6 12:18:02 10° WNW 12:22:18 24° WSW 12:26:33 10° SSW visible
19 Jul 5.2 10:02:06 10° NNW 10:07:04 34° NE 10:11:58 10° ESE visible
19 Jul 4.2 11:45:43 10° NW 11:50:34 33° WSW 11:55:23 10° S visible
20 Jul 5.6 09:30:30 10° N 09:35:01 26° NE 09:39:31 10° ESE visible
20 Jul 3.8 11:13:35 10° NW 11:18:48 47° WSW 11:23:21 13° S visible
21 Jul 5.9 08:58:59 10° N 09:02:56 20° NE 09:06:51 10° E visible
21 Jul 3.5 10:41:34 10° NW 10:46:59 66° WSW 10:49:07 37° S visible
